Year,Month,Day,Hour,Minute,Value (Times are PST for temperature in C)
2013,07,01,00,00,22.30
2013,07,01,00,01,22.30
2013,07,01,00,02,22.30
2013,07,01,00,03,22.30
2013,07,01,00,04,22.30
2013,07,01,00,05,22.20
2013,07,01,00,06,22.20
2013,07,01,00,07,22.20
2013,07,01,00,08,22.10
2013,07,01,00,09,22.10
2013,07,01,00,10,22.10
2013,07,01,00,11,22.10
2013,07,01,00,12,22.10
2013,07,01,00,13,22.10
2013,07,01,00,14,22.10
2013,07,01,00,15,22.10
2013,07,01,00,16,22.10
2013,07,01,00,17,22.10
2013,07,01,00,18,22.10
2013,07,01,00,19,22.20
2013,07,01,00,20,22.20
2013,07,01,00,21,22.20
2013,07,01,00,22,22.20
2013,07,01,00,23,22.20
2013,07,01,00,24,22.30
2013,07,01,00,25,22.30
2013,07,01,00,26,22.30
2013,07,01,00,27,22.30
2013,07,01,00,28,22.30
2013,07,01,00,29,22.30
2013,07,01,00,30,22.20
2013,07,01,00,31,22.20
2013,07,01,00,32,22.10
2013,07,01,00,33,22.10
2013,07,01,00,34,22.00
2013,07,01,00,35,21.90
2013,07,01,00,36,21.90
2013,07,01,00,37,21.80
2013,07,01,00,38,21.80
2013,07,01,00,39,21.80
2013,07,01,00,40,21.80
2013,07,01,00,41,21.80
2013,07,01,00,42,21.70
2013,07,01,00,43,21.70
2013,07,01,00,44,21.70
2013,07,01,00,45,21.70
2013,07,01,00,46,21.70
2013,07,01,00,47,21.70
2013,07,01,00,48,21.70
2013,07,01,00,49,21.70
2013,07,01,00,50,21.60
2013,07,01,00,51,21.60
2013,07,01,00,52,21.60
2013,07,01,00,53,21.60
2013,07,01,00,54,21.50
2013,07,01,00,55,21.50
2013,07,01,00,56,21.50
2013,07,01,00,57,21.40
2013,07,01,00,58,21.40
2013,07,01,00,59,21.40
2013,07,01,01,00,21.30
2013,07,01,01,01,21.30
2013,07,01,01,02,21.30
2013,07,01,01,03,21.30
2013,07,01,01,04,21.30
2013,07,01,01,05,21.30
2013,07,01,01,06,21.20
2013,07,01,01,07,21.20
2013,07,01,01,08,21.10
2013,07,01,01,09,21.10
2013,07,01,01,10,21.10
2013,07,01,01,11,21.00
2013,07,01,01,12,21.00
2013,07,01,01,13,21.00
2013,07,01,01,14,20.90
2013,07,01,01,15,20.90
2013,07,01,01,16,20.90
2013,07,01,01,17,20.80
2013,07,01,01,18,20.80
2013,07,01,01,19,20.80
2013,07,01,01,20,20.80
2013,07,01,01,21,20.70
2013,07,01,01,22,20.70
2013,07,01,01,23,20.70
2013,07,01,01,24,20.70
2013,07,01,01,25,20.70
2013,07,01,01,26,20.70
2013,07,01,01,27,20.70
2013,07,01,01,28,20.60
2013,07,01,01,29,20.60
2013,07,01,01,30,20.60
2013,07,01,01,31,20.60
2013,07,01,01,32,20.60
2013,07,01,01,33,20.50
2013,07,01,01,34,20.50
2013,07,01,01,35,20.50
2013,07,01,01,36,20.40
2013,07,01,01,37,20.40
2013,07,01,01,38,20.40
2013,07,01,01,39,20.40
2013,07,01,01,40,20.30
2013,07,01,01,41,20.30
2013,07,01,01,42,20.30
2013,07,01,01,43,20.30
2013,07,01,01,44,20.30
2013,07,01,01,45,20.30
2013,07,01,01,46,20.20
2013,07,01,01,47,20.20
2013,07,01,01,48,20.20
2013,07,01,01,49,20.20
2013,07,01,01,50,20.20
2013,07,01,01,51,20.20
2013,07,01,01,52,20.20
2013,07,01,01,53,20.20
2013,07,01,01,54,20.20
2013,07,01,01,55,20.20
2013,07,01,01,56,20.20
2013,07,01,01,57,20.10
2013,07,01,01,58,20.10
2013,07,01,01,59,20.10
2013,07,01,02,00,20.10
2013,07,01,02,01,20.10
2013,07,01,02,02,20.10
2013,07,01,02,03,20.10
2013,07,01,02,04,20.10
2013,07,01,02,05,20.10
2013,07,01,02,06,20.10
2013,07,01,02,07,20.10
2013,07,01,02,08,20.10
2013,07,01,02,09,20.10
2013,07,01,02,10,20.00
2013,07,01,02,11,20.00
2013,07,01,02,12,20.00
2013,07,01,02,13,20.00
2013,07,01,02,14,20.00
2013,07,01,02,15,20.00
2013,07,01,02,16,20.00
2013,07,01,02,17,20.00
2013,07,01,02,18,20.00
2013,07,01,02,19,20.00
2013,07,01,02,20,19.90
2013,07,01,02,21,19.90
2013,07,01,02,22,19.90
2013,07,01,02,23,19.90
2013,07,01,02,24,19.90
2013,07,01,02,25,19.90
2013,07,01,02,26,19.80
2013,07,01,02,27,19.80
2013,07,01,02,28,19.80
2013,07,01,02,29,19.80
2013,07,01,02,30,19.80
2013,07,01,02,31,19.80
2013,07,01,02,32,19.70
2013,07,01,02,33,19.70
2013,07,01,02,34,19.70
2013,07,01,02,35,19.80
2013,07,01,02,36,19.80
2013,07,01,02,37,19.70
2013,07,01,02,38,19.70
2013,07,01,02,39,19.70
2013,07,01,02,40,19.70
2013,07,01,02,41,19.70
2013,07,01,02,42,19.70
2013,07,01,02,43,19.70
2013,07,01,02,44,19.70
2013,07,01,02,45,19.70
2013,07,01,02,46,19.70
2013,07,01,02,47,19.70
2013,07,01,02,48,19.60
2013,07,01,02,49,19.60
2013,07,01,02,50,19.60
2013,07,01,02,51,19.60
2013,07,01,02,52,19.60
2013,07,01,02,53,19.60
2013,07,01,02,54,19.60
2013,07,01,02,55,19.60
2013,07,01,02,56,19.60
2013,07,01,02,57,19.60
2013,07,01,02,58,19.50
2013,07,01,02,59,19.50
2013,07,01,03,00,19.50
2013,07,01,03,01,19.50
2013,07,01,03,02,19.40
2013,07,01,03,03,19.40
2013,07,01,03,04,19.40
2013,07,01,03,05,19.40
2013,07,01,03,06,19.30
2013,07,01,03,07,19.30
2013,07,01,03,08,19.30
2013,07,01,03,09,19.30
2013,07,01,03,10,19.20
2013,07,01,03,11,19.20
2013,07,01,03,12,19.20
2013,07,01,03,13,19.20
2013,07,01,03,14,19.20
2013,07,01,03,15,19.10
2013,07,01,03,16,19.10
2013,07,01,03,17,19.10
2013,07,01,03,18,19.10
2013,07,01,03,19,19.10
2013,07,01,03,20,19.10
2013,07,01,03,21,19.00
2013,07,01,03,22,19.00
2013,07,01,03,23,19.10
2013,07,01,03,24,19.10
2013,07,01,03,25,19.10
2013,07,01,03,26,19.10
2013,07,01,03,27,19.10
2013,07,01,03,28,19.10
2013,07,01,03,29,19.10
2013,07,01,03,30,19.10
2013,07,01,03,31,19.00
2013,07,01,03,32,19.00
2013,07,01,03,33,19.00
2013,07,01,03,34,19.00
2013,07,01,03,35,18.90
2013,07,01,03,36,18.90
2013,07,01,03,37,18.90
2013,07,01,03,38,18.90
2013,07,01,03,39,18.90
2013,07,01,03,40,18.80
2013,07,01,03,41,18.80
2013,07,01,03,42,18.80
2013,07,01,03,43,18.80
2013,07,01,03,44,18.80
2013,07,01,03,45,18.80
2013,07,01,03,46,18.80
2013,07,01,03,47,18.70
2013,07,01,03,48,18.70
2013,07,01,03,49,18.70
2013,07,01,03,50,18.70
2013,07,01,03,51,18.70
2013,07,01,03,52,18.80
2013,07,01,03,53,18.80
2013,07,01,03,54,18.80
2013,07,01,03,55,18.80
2013,07,01,03,56,18.90
2013,07,01,03,57,18.90
2013,07,01,03,58,19.00
2013,07,01,03,59,19.00
2013,07,01,04,00,19.00
2013,07,01,04,01,19.00
2013,07,01,04,02,18.90
2013,07,01,04,03,18.90
2013,07,01,04,04,18.90
2013,07,01,04,05,18.90
2013,07,01,04,06,18.90
2013,07,01,04,07,18.80
2013,07,01,04,08,18.80
2013,07,01,04,09,18.80
2013,07,01,04,10,18.70
2013,07,01,04,11,18.70
2013,07,01,04,12,18.70
2013,07,01,04,13,18.70
2013,07,01,04,14,18.60
2013,07,01,04,15,18.60
2013,07,01,04,16,18.60
2013,07,01,04,17,18.60
2013,07,01,04,18,18.60
2013,07,01,04,19,18.50
2013,07,01,04,20,18.50
2013,07,01,04,21,18.50
2013,07,01,04,22,18.50
2013,07,01,04,23,18.40
2013,07,01,04,24,18.40
2013,07,01,04,25,18.40
2013,07,01,04,26,18.40
2013,07,01,04,27,18.40
2013,07,01,04,28,18.40
2013,07,01,04,29,18.40
2013,07,01,04,30,18.40
2013,07,01,04,31,18.40
2013,07,01,04,32,18.40
2013,07,01,04,33,18.30
2013,07,01,04,34,18.30
2013,07,01,04,35,18.30
2013,07,01,04,36,18.30
2013,07,01,04,37,18.30
2013,07,01,04,38,18.30
2013,07,01,04,39,18.30
2013,07,01,04,40,18.30
2013,07,01,04,41,18.30
2013,07,01,04,42,18.30
2013,07,01,04,43,18.30
2013,07,01,04,44,18.30
2013,07,01,04,45,18.30
2013,07,01,04,46,18.30
2013,07,01,04,47,18.30
2013,07,01,04,48,18.30
2013,07,01,04,49,18.20
2013,07,01,04,50,18.20
2013,07,01,04,51,18.20
2013,07,01,04,52,18.20
2013,07,01,04,53,18.20
2013,07,01,04,54,18.20
2013,07,01,04,55,18.20
2013,07,01,04,56,18.20
2013,07,01,04,57,18.20
2013,07,01,04,58,18.20
2013,07,01,04,59,18.20
2013,07,01,05,00,18.20
2013,07,01,05,01,18.20
2013,07,01,05,02,18.20
2013,07,01,05,03,18.20
2013,07,01,05,04,18.20
2013,07,01,05,05,18.20
2013,07,01,05,06,18.20
2013,07,01,05,07,18.20
2013,07,01,05,08,18.20
2013,07,01,05,09,18.20
2013,07,01,05,10,18.20
2013,07,01,05,11,18.20
2013,07,01,05,12,18.20
2013,07,01,05,13,18.20
2013,07,01,05,14,18.20
2013,07,01,05,15,18.20
2013,07,01,05,16,18.20
2013,07,01,05,17,18.30
2013,07,01,05,18,18.30
2013,07,01,05,19,18.30
2013,07,01,05,20,18.30
2013,07,01,05,21,18.30
2013,07,01,05,22,18.30
2013,07,01,05,23,18.30
2013,07,01,05,24,18.30
2013,07,01,05,25,18.30
2013,07,01,05,26,18.30
2013,07,01,05,27,18.30
2013,07,01,05,28,18.40
2013,07,01,05,29,18.40
2013,07,01,05,30,18.40
2013,07,01,05,31,18.40
2013,07,01,05,32,18.40
2013,07,01,05,33,18.30
2013,07,01,05,34,18.30
2013,07,01,05,35,18.30
2013,07,01,05,36,18.30
2013,07,01,05,37,18.30
2013,07,01,05,38,18.30
2013,07,01,05,39,18.30
2013,07,01,05,40,18.30
2013,07,01,05,41,18.30
2013,07,01,05,42,18.30
2013,07,01,05,43,18.30
2013,07,01,05,44,18.40
2013,07,01,05,45,18.40
2013,07,01,05,46,18.40
2013,07,01,05,47,18.40
2013,07,01,05,48,18.40
2013,07,01,05,49,18.40
2013,07,01,05,50,18.40
2013,07,01,05,51,18.40
2013,07,01,05,52,18.40
2013,07,01,05,53,18.40
2013,07,01,05,54,18.40
2013,07,01,05,55,18.40
2013,07,01,05,56,18.40
2013,07,01,05,57,18.40
2013,07,01,05,58,18.40
2013,07,01,05,59,18.40
2013,07,01,06,00,18.40
2013,07,01,06,01,18.40
2013,07,01,06,02,18.40
2013,07,01,06,03,18.40
2013,07,01,06,04,18.40
2013,07,01,06,05,18.40
2013,07,01,06,06,18.40
2013,07,01,06,07,18.30
2013,07,01,06,08,18.30
2013,07,01,06,09,18.30
2013,07,01,06,10,18.30
2013,07,01,06,11,18.30
2013,07,01,06,12,18.30
2013,07,01,06,13,18.30
2013,07,01,06,14,18.30
2013,07,01,06,15,18.30
2013,07,01,06,16,18.30
2013,07,01,06,17,18.30
2013,07,01,06,18,18.40
2013,07,01,06,19,18.30
2013,07,01,06,20,18.30
2013,07,01,06,21,18.30
2013,07,01,06,22,18.30
2013,07,01,06,23,18.30
2013,07,01,06,24,18.30
2013,07,01,06,25,18.30
2013,07,01,06,26,18.30
2013,07,01,06,27,18.30
2013,07,01,06,28,18.30
2013,07,01,06,29,18.30
2013,07,01,06,30,18.40
2013,07,01,06,31,18.40
2013,07,01,06,32,18.40
2013,07,01,06,33,18.40
2013,07,01,06,34,18.40
2013,07,01,06,35,18.40
2013,07,01,06,36,18.40
2013,07,01,06,37,18.50
2013,07,01,06,38,18.50
2013,07,01,06,39,18.50
2013,07,01,06,40,18.50
2013,07,01,06,41,18.60
2013,07,01,06,42,18.60
2013,07,01,06,43,18.60
2013,07,01,06,44,18.70
2013,07,01,06,45,18.70
2013,07,01,06,46,18.70
2013,07,01,06,47,18.80
2013,07,01,06,48,18.80
2013,07,01,06,49,18.80
2013,07,01,06,50,18.90
2013,07,01,06,51,18.90
2013,07,01,06,52,19.00
2013,07,01,06,53,19.00
2013,07,01,06,54,19.10
2013,07,01,06,55,19.10
2013,07,01,06,56,19.10
2013,07,01,06,57,19.20
2013,07,01,06,58,19.20
2013,07,01,06,59,19.20
2013,07,01,07,00,19.30
2013,07,01,07,01,19.30
2013,07,01,07,02,19.40
2013,07,01,07,03,19.40
2013,07,01,07,04,19.50
2013,07,01,07,05,19.50
2013,07,01,07,06,19.60
2013,07,01,07,07,19.60
2013,07,01,07,08,19.70
2013,07,01,07,09,19.70
2013,07,01,07,10,19.70
2013,07,01,07,11,19.80
2013,07,01,07,12,19.80
2013,07,01,07,13,19.80
2013,07,01,07,14,19.90
2013,07,01,07,15,19.90
2013,07,01,07,16,19.90
2013,07,01,07,17,20.00
2013,07,01,07,18,20.00
2013,07,01,07,19,20.10
2013,07,01,07,20,20.10
2013,07,01,07,21,20.10
2013,07,01,07,22,20.10
2013,07,01,07,23,20.20
2013,07,01,07,24,20.20
2013,07,01,07,25,20.20
2013,07,01,07,26,20.30
2013,07,01,07,27,20.30
2013,07,01,07,28,20.40
2013,07,01,07,29,20.40
2013,07,01,07,30,20.40
2013,07,01,07,31,20.50
2013,07,01,07,32,20.50
2013,07,01,07,33,20.60
2013,07,01,07,34,20.60
2013,07,01,07,35,20.70
2013,07,01,07,36,20.70
2013,07,01,07,37,20.80
2013,07,01,07,38,20.80
2013,07,01,07,39,20.90
2013,07,01,07,40,21.00
2013,07,01,07,41,21.10
2013,07,01,07,42,21.10
2013,07,01,07,43,21.20
2013,07,01,07,44,21.30
2013,07,01,07,45,21.40
2013,07,01,07,46,21.50
2013,07,01,07,47,21.60
2013,07,01,07,48,21.70
2013,07,01,07,49,21.70
2013,07,01,07,50,21.80
2013,07,01,07,51,21.90
2013,07,01,07,52,22.00
2013,07,01,07,53,22.10
2013,07,01,07,54,22.20
2013,07,01,07,55,22.30
2013,07,01,07,56,22.40
2013,07,01,07,57,22.50
2013,07,01,07,58,22.60
2013,07,01,07,59,22.70
2013,07,01,08,00,22.70
2013,07,01,08,01,22.80
2013,07,01,08,02,22.80
2013,07,01,08,03,22.90
2013,07,01,08,04,22.90
2013,07,01,08,05,22.90
2013,07,01,08,06,23.00
2013,07,01,08,07,23.00
2013,07,01,08,08,23.00
2013,07,01,08,09,23.00
2013,07,01,08,10,23.00
2013,07,01,08,11,23.00
2013,07,01,08,12,23.10
2013,07,01,08,13,23.10
2013,07,01,08,14,23.10
2013,07,01,08,15,23.10
2013,07,01,08,16,23.20
2013,07,01,08,17,23.20
2013,07,01,08,18,23.20
2013,07,01,08,19,23.30
2013,07,01,08,20,23.30
2013,07,01,08,21,23.40
2013,07,01,08,22,23.40
2013,07,01,08,23,23.50
2013,07,01,08,24,23.50
2013,07,01,08,25,23.50
2013,07,01,08,26,23.50
2013,07,01,08,27,23.40
2013,07,01,08,28,23.50
2013,07,01,08,29,23.40
2013,07,01,08,30,23.50
2013,07,01,08,31,23.50
2013,07,01,08,32,23.50
2013,07,01,08,33,23.60
2013,07,01,08,34,23.60
2013,07,01,08,35,23.60
2013,07,01,08,36,23.70
2013,07,01,08,37,23.70
2013,07,01,08,38,23.70
2013,07,01,08,39,23.70
2013,07,01,08,40,23.80
2013,07,01,08,41,23.80
2013,07,01,08,42,23.80
2013,07,01,08,43,23.80
2013,07,01,08,44,23.80
2013,07,01,08,45,23.80
2013,07,01,08,46,23.80
2013,07,01,08,47,23.80
2013,07,01,08,48,23.80
2013,07,01,08,49,23.90
2013,07,01,08,50,23.90
2013,07,01,08,51,24.00
2013,07,01,08,52,24.10
2013,07,01,08,53,24.10
2013,07,01,08,54,24.10
2013,07,01,08,55,24.10
2013,07,01,08,56,24.20
2013,07,01,08,57,24.20
2013,07,01,08,58,24.20
2013,07,01,08,59,24.20
2013,07,01,09,00,24.20
2013,07,01,09,01,24.30
2013,07,01,09,02,24.30
2013,07,01,09,03,24.40
2013,07,01,09,04,24.40
2013,07,01,09,05,24.50
2013,07,01,09,06,24.50
2013,07,01,09,07,24.60
2013,07,01,09,08,24.60
2013,07,01,09,09,24.60
2013,07,01,09,10,24.70
2013,07,01,09,11,24.70
2013,07,01,09,12,24.80
2013,07,01,09,13,24.80
2013,07,01,09,14,24.80
2013,07,01,09,15,24.80
2013,07,01,09,16,24.90
2013,07,01,09,17,24.90
2013,07,01,09,18,24.90
2013,07,01,09,19,25.00
2013,07,01,09,20,25.00
2013,07,01,09,21,25.10
2013,07,01,09,22,25.10
2013,07,01,09,23,25.10
2013,07,01,09,24,25.10
2013,07,01,09,25,25.10
2013,07,01,09,26,25.10
2013,07,01,09,27,25.10
2013,07,01,09,28,25.00
2013,07,01,09,29,25.00
2013,07,01,09,30,25.00
2013,07,01,09,31,24.90
2013,07,01,09,32,24.90
2013,07,01,09,33,24.90
2013,07,01,09,34,24.90
2013,07,01,09,35,24.90
2013,07,01,09,36,25.00
2013,07,01,09,37,25.00
2013,07,01,09,38,25.00
2013,07,01,09,39,25.00
2013,07,01,09,40,24.90
2013,07,01,09,41,24.90
2013,07,01,09,42,24.90
2013,07,01,09,43,24.90
2013,07,01,09,44,24.90
2013,07,01,09,45,25.00
2013,07,01,09,46,25.00
2013,07,01,09,47,25.10
2013,07,01,09,48,25.10
2013,07,01,09,49,25.10
2013,07,01,09,50,25.10
2013,07,01,09,51,25.20
2013,07,01,09,52,25.20
2013,07,01,09,53,25.20
2013,07,01,09,54,25.20
2013,07,01,09,55,25.30
2013,07,01,09,56,25.30
2013,07,01,09,57,25.30
2013,07,01,09,58,25.40
2013,07,01,09,59,25.40
2013,07,01,10,00,25.50
2013,07,01,10,01,25.50
2013,07,01,10,02,25.60
2013,07,01,10,03,25.60
2013,07,01,10,04,25.60
2013,07,01,10,05,25.70
2013,07,01,10,06,25.80
2013,07,01,10,07,25.80
2013,07,01,10,08,25.80
2013,07,01,10,09,25.90
2013,07,01,10,10,25.90
2013,07,01,10,11,26.00
2013,07,01,10,12,26.10
2013,07,01,10,13,26.10
2013,07,01,10,14,26.20
2013,07,01,10,15,26.20
2013,07,01,10,16,26.20
2013,07,01,10,17,26.30
2013,07,01,10,18,26.30
2013,07,01,10,19,26.30
2013,07,01,10,20,26.40
2013,07,01,10,21,26.40
2013,07,01,10,22,26.40
2013,07,01,10,23,26.40
2013,07,01,10,24,26.40
2013,07,01,10,25,26.30
2013,07,01,10,26,26.30
2013,07,01,10,27,26.30
2013,07,01,10,28,26.30
2013,07,01,10,29,26.30
2013,07,01,10,30,26.20
2013,07,01,10,31,26.20
2013,07,01,10,32,26.30
2013,07,01,10,33,26.30
2013,07,01,10,34,26.30
2013,07,01,10,35,26.30
2013,07,01,10,36,26.40
2013,07,01,10,37,26.40
2013,07,01,10,38,26.40
2013,07,01,10,39,26.50
2013,07,01,10,40,26.60
2013,07,01,10,41,26.60
2013,07,01,10,42,26.70
2013,07,01,10,43,26.70
2013,07,01,10,44,26.70
2013,07,01,10,45,26.70
2013,07,01,10,46,26.70
2013,07,01,10,47,26.80
2013,07,01,10,48,26.80
2013,07,01,10,49,26.80
2013,07,01,10,50,26.80
2013,07,01,10,51,26.80
2013,07,01,10,52,26.80
2013,07,01,10,53,26.80
2013,07,01,10,54,26.80
2013,07,01,10,55,26.90
2013,07,01,10,56,26.90
2013,07,01,10,57,26.90
2013,07,01,10,58,27.00
2013,07,01,10,59,27.00
2013,07,01,11,00,27.10
2013,07,01,11,01,27.10
2013,07,01,11,02,27.20
2013,07,01,11,03,27.30
2013,07,01,11,04,27.30
2013,07,01,11,05,27.30
2013,07,01,11,06,27.30
2013,07,01,11,07,27.30
2013,07,01,11,08,27.30
2013,07,01,11,09,27.30
2013,07,01,11,10,27.30
2013,07,01,11,11,27.30
2013,07,01,11,12,27.20
2013,07,01,11,13,27.20
2013,07,01,11,14,27.10
2013,07,01,11,15,27.00
2013,07,01,11,16,27.00
2013,07,01,11,17,26.90
2013,07,01,11,18,26.90
2013,07,01,11,19,26.90
2013,07,01,11,20,26.80
2013,07,01,11,21,26.80
2013,07,01,11,22,26.80
2013,07,01,11,23,26.80
2013,07,01,11,24,26.80
2013,07,01,11,25,26.80
2013,07,01,11,26,26.90
2013,07,01,11,27,26.90
2013,07,01,11,28,27.00
2013,07,01,11,29,27.00
2013,07,01,11,30,27.10
2013,07,01,11,31,27.10
2013,07,01,11,32,27.20
2013,07,01,11,33,27.30
2013,07,01,11,34,27.30
2013,07,01,11,35,27.30
2013,07,01,11,36,27.30
2013,07,01,11,37,27.40
2013,07,01,11,38,27.40
2013,07,01,11,39,27.40
2013,07,01,11,40,27.40
2013,07,01,11,41,27.40
2013,07,01,11,42,27.40
2013,07,01,11,43,27.40
2013,07,01,11,44,27.40
2013,07,01,11,45,27.40
2013,07,01,11,46,27.40
2013,07,01,11,47,27.40
2013,07,01,11,48,27.40
2013,07,01,11,49,27.40
2013,07,01,11,50,27.40
2013,07,01,11,51,27.40
2013,07,01,11,52,27.40
2013,07,01,11,53,27.40
2013,07,01,11,54,27.30
2013,07,01,11,55,27.30
2013,07,01,11,56,27.30
2013,07,01,11,57,27.30
2013,07,01,11,58,27.30
2013,07,01,11,59,27.20
2013,07,01,12,00,27.10
2013,07,01,12,01,27.10
2013,07,01,12,02,27.10
2013,07,01,12,03,27.10
2013,07,01,12,04,27.10
2013,07,01,12,05,27.20
2013,07,01,12,06,27.20
2013,07,01,12,07,27.20
2013,07,01,12,08,27.30
2013,07,01,12,09,27.30
2013,07,01,12,10,27.30
2013,07,01,12,11,27.30
2013,07,01,12,12,27.40
2013,07,01,12,13,27.40
2013,07,01,12,14,27.40
2013,07,01,12,15,27.40
2013,07,01,12,16,27.40
2013,07,01,12,17,27.30
2013,07,01,12,18,27.30
2013,07,01,12,19,27.30
2013,07,01,12,20,27.30
2013,07,01,12,21,27.30
2013,07,01,12,22,27.30
2013,07,01,12,23,27.30
2013,07,01,12,24,27.30
2013,07,01,12,25,27.40
2013,07,01,12,26,27.40
2013,07,01,12,27,27.50
2013,07,01,12,28,27.50
2013,07,01,12,29,27.50
2013,07,01,12,30,27.60
2013,07,01,12,31,27.60
2013,07,01,12,32,27.60
2013,07,01,12,33,27.60
2013,07,01,12,34,27.60
2013,07,01,12,35,27.60
2013,07,01,12,36,27.70
2013,07,01,12,37,27.70
2013,07,01,12,38,27.70
2013,07,01,12,39,27.70
2013,07,01,12,40,27.70
2013,07,01,12,41,27.70
2013,07,01,12,42,27.70
2013,07,01,12,43,27.70
2013,07,01,12,44,27.80
2013,07,01,12,45,27.80
2013,07,01,12,46,27.80
2013,07,01,12,47,27.80
2013,07,01,12,48,27.80
2013,07,01,12,49,27.90
2013,07,01,12,50,27.90
2013,07,01,12,51,27.90
2013,07,01,12,52,27.90
2013,07,01,12,53,27.90
2013,07,01,12,54,27.90
2013,07,01,12,55,27.90
2013,07,01,12,56,27.90
2013,07,01,12,57,27.90
2013,07,01,12,58,28.00
2013,07,01,12,59,28.00
2013,07,01,13,00,28.00
2013,07,01,13,01,28.10
2013,07,01,13,02,28.10
2013,07,01,13,03,28.10
2013,07,01,13,04,28.10
2013,07,01,13,05,28.10
2013,07,01,13,06,28.20
2013,07,01,13,07,28.20
2013,07,01,13,08,28.20
2013,07,01,13,09,28.20
2013,07,01,13,10,28.20
2013,07,01,13,11,28.30
2013,07,01,13,12,28.30
2013,07,01,13,13,28.30
2013,07,01,13,14,28.40
2013,07,01,13,15,28.40
2013,07,01,13,16,28.40
2013,07,01,13,17,28.50
2013,07,01,13,18,28.50
2013,07,01,13,19,28.50
2013,07,01,13,20,28.50
2013,07,01,13,21,28.50
2013,07,01,13,22,28.50
2013,07,01,13,23,28.50
2013,07,01,13,24,28.50
2013,07,01,13,25,28.50
2013,07,01,13,26,28.50
2013,07,01,13,27,28.50
2013,07,01,13,28,28.50
2013,07,01,13,29,28.60
2013,07,01,13,30,28.60
2013,07,01,13,31,28.60
2013,07,01,13,32,28.60
2013,07,01,13,33,28.70
2013,07,01,13,34,28.70
2013,07,01,13,35,28.70
2013,07,01,13,36,28.70
2013,07,01,13,37,28.80
2013,07,01,13,38,28.80
2013,07,01,13,39,28.80
2013,07,01,13,40,28.80
2013,07,01,13,41,28.80
2013,07,01,13,42,28.80
2013,07,01,13,43,28.80
2013,07,01,13,44,28.80
2013,07,01,13,45,28.90
2013,07,01,13,46,28.80
2013,07,01,13,47,28.90
2013,07,01,13,48,28.90
2013,07,01,13,49,28.90
2013,07,01,13,50,28.80
2013,07,01,13,51,28.90
2013,07,01,13,52,28.90
2013,07,01,13,53,28.90
2013,07,01,13,54,28.90
2013,07,01,13,55,28.90
2013,07,01,13,56,29.00
2013,07,01,13,57,29.00
2013,07,01,13,58,29.10
2013,07,01,13,59,29.10
2013,07,01,14,00,29.10
2013,07,01,14,01,29.10
2013,07,01,14,02,29.10
2013,07,01,14,03,29.10
2013,07,01,14,04,29.20
2013,07,01,14,05,29.20
2013,07,01,14,06,29.20
2013,07,01,14,07,29.20
2013,07,01,14,08,29.20
2013,07,01,14,09,29.20
2013,07,01,14,10,29.20
2013,07,01,14,11,29.20
2013,07,01,14,12,29.20
2013,07,01,14,13,29.20
2013,07,01,14,14,29.20
2013,07,01,14,15,29.20
2013,07,01,14,16,29.10
2013,07,01,14,17,29.00
2013,07,01,14,18,29.00
2013,07,01,14,19,28.90
2013,07,01,14,20,29.00
2013,07,01,14,21,29.00
2013,07,01,14,22,29.00
2013,07,01,14,23,29.10
2013,07,01,14,24,29.10
2013,07,01,14,25,29.20
2013,07,01,14,26,29.20
2013,07,01,14,27,29.20
2013,07,01,14,28,29.20
2013,07,01,14,29,29.20
2013,07,01,14,30,29.20
2013,07,01,14,31,29.20
2013,07,01,14,32,29.30
2013,07,01,14,33,29.30
2013,07,01,14,34,29.20
2013,07,01,14,35,29.20
2013,07,01,14,36,29.20
2013,07,01,14,37,29.20
2013,07,01,14,38,29.20
2013,07,01,14,39,29.10
2013,07,01,14,40,29.10
2013,07,01,14,41,29.00
2013,07,01,14,42,29.00
2013,07,01,14,43,29.00
2013,07,01,14,44,28.90
2013,07,01,14,45,28.90
2013,07,01,14,46,28.90
2013,07,01,14,47,28.90
2013,07,01,14,48,28.90
2013,07,01,14,49,29.00
2013,07,01,14,50,29.00
2013,07,01,14,51,29.00
2013,07,01,14,52,29.10
2013,07,01,14,53,29.10
2013,07,01,14,54,29.10
2013,07,01,14,55,29.10
2013,07,01,14,56,29.10
2013,07,01,14,57,29.00
2013,07,01,14,58,29.00
2013,07,01,14,59,29.00
2013,07,01,15,00,29.00
2013,07,01,15,01,29.00
2013,07,01,15,02,29.00
2013,07,01,15,03,28.90
2013,07,01,15,04,28.90
2013,07,01,15,05,28.80
2013,07,01,15,06,28.80
2013,07,01,15,07,28.80
2013,07,01,15,08,28.80
2013,07,01,15,09,28.70
2013,07,01,15,10,28.70
2013,07,01,15,11,28.70
2013,07,01,15,12,28.70
2013,07,01,15,13,28.70
2013,07,01,15,14,28.70
2013,07,01,15,15,28.70
2013,07,01,15,16,28.70
2013,07,01,15,17,28.70
2013,07,01,15,18,28.70
2013,07,01,15,19,28.70
2013,07,01,15,20,28.70
2013,07,01,15,21,28.70
2013,07,01,15,22,28.70
2013,07,01,15,23,28.70
2013,07,01,15,24,28.70
2013,07,01,15,25,28.70
2013,07,01,15,26,28.60
2013,07,01,15,27,28.60
2013,07,01,15,28,28.60
2013,07,01,15,29,28.60
2013,07,01,15,30,28.60
2013,07,01,15,31,28.60
2013,07,01,15,32,28.60
2013,07,01,15,33,28.50
2013,07,01,15,34,28.50
2013,07,01,15,35,28.50
2013,07,01,15,36,28.50
2013,07,01,15,37,28.50
2013,07,01,15,38,28.60
2013,07,01,15,39,28.60
2013,07,01,15,40,28.60
2013,07,01,15,41,28.60
2013,07,01,15,42,28.70
2013,07,01,15,43,28.70
2013,07,01,15,44,28.70
2013,07,01,15,45,28.70
2013,07,01,15,46,28.70
2013,07,01,15,47,28.70
2013,07,01,15,48,28.80
2013,07,01,15,49,28.80
2013,07,01,15,50,28.80
2013,07,01,15,51,28.80
2013,07,01,15,52,28.80
2013,07,01,15,53,28.80
2013,07,01,15,54,28.80
2013,07,01,15,55,28.80
2013,07,01,15,56,28.80
2013,07,01,15,57,28.80
2013,07,01,15,58,28.80
2013,07,01,15,59,28.80
2013,07,01,16,00,28.70
2013,07,01,16,01,28.70
2013,07,01,16,02,28.80
2013,07,01,16,03,28.80
2013,07,01,16,04,28.80
2013,07,01,16,05,28.80
2013,07,01,16,06,28.80
2013,07,01,16,07,28.80
2013,07,01,16,08,28.80
2013,07,01,16,09,28.80
2013,07,01,16,10,28.80
2013,07,01,16,11,28.80
2013,07,01,16,12,28.80
2013,07,01,16,13,28.80
2013,07,01,16,14,28.80
2013,07,01,16,15,28.70
2013,07,01,16,16,28.70
2013,07,01,16,17,28.70
2013,07,01,16,18,28.70
2013,07,01,16,19,28.70
2013,07,01,16,20,28.60
2013,07,01,16,21,28.60
2013,07,01,16,22,28.60
2013,07,01,16,23,28.60
2013,07,01,16,24,28.60
2013,07,01,16,25,28.50
2013,07,01,16,26,28.40
2013,07,01,16,27,28.40
2013,07,01,16,28,28.40
2013,07,01,16,29,28.30
2013,07,01,16,30,28.30
2013,07,01,16,31,28.30
2013,07,01,16,32,28.20
2013,07,01,16,33,28.20
2013,07,01,16,34,28.10
2013,07,01,16,35,28.10
2013,07,01,16,36,28.10
2013,07,01,16,37,28.10
2013,07,01,16,38,28.10
2013,07,01,16,39,28.10
2013,07,01,16,40,28.10
2013,07,01,16,41,28.20
2013,07,01,16,42,28.20
2013,07,01,16,43,28.30
2013,07,01,16,44,28.30
2013,07,01,16,45,28.30
2013,07,01,16,46,28.40
2013,07,01,16,47,28.40
2013,07,01,16,48,28.30
2013,07,01,16,49,28.30
2013,07,01,16,50,28.40
2013,07,01,16,51,28.40
2013,07,01,16,52,28.40
2013,07,01,16,53,28.40
2013,07,01,16,54,28.50
2013,07,01,16,55,28.50
2013,07,01,16,56,28.50
2013,07,01,16,57,28.60
2013,07,01,16,58,28.60
2013,07,01,16,59,28.60
2013,07,01,17,00,28.60
2013,07,01,17,01,28.70
2013,07,01,17,02,28.70
2013,07,01,17,03,28.80
2013,07,01,17,04,28.80
2013,07,01,17,05,28.80
2013,07,01,17,06,28.80
2013,07,01,17,07,28.90
2013,07,01,17,08,28.90
2013,07,01,17,09,28.90
2013,07,01,17,10,28.90
2013,07,01,17,11,29.00
2013,07,01,17,12,29.00
2013,07,01,17,13,29.10
2013,07,01,17,14,29.10
2013,07,01,17,15,29.20
2013,07,01,17,16,29.30
2013,07,01,17,17,29.40
2013,07,01,17,18,29.50
2013,07,01,17,19,29.60